Lewisburg, WV

6:26 AM EDT on April 28, 2017 (GMT -0400)
Greenbrier Valley

Weather History for KLWB - November, 2013

Change the Weather History Date:

Monday, November 11, 2013

  Actual Average Record
Temperature  
Mean Temperature 48 °F -  
Max Temperature 57 °F 54 °F 73 °F (2006)
Min Temperature 38 °F 33 °F 19 °F (1993)
Degree Days  
Heating Degree Days 18    
Moisture  
Dew Point 19 °F    
Average Humidity 36    
Maximum Humidity 58    
Minimum Humidity 17    
Precipitation  
Precipitation 0.00 in - - ()
Sea Level Pressure  
Sea Level Pressure 30.12 in    
Wind  
Wind Speed 3 mph (SW)    
Max Wind Speed 7 mph    
Max Gust Speed -    
Visibility 10 miles    
Events      
Averages and records for this station are not official NWS values.
T = Trace of Precipitation, MM = Missing Value Source: NWS Daily Summary

Daily Weather History Graph

Daily Weather History Graph

Search for Another Location

Airport or City:

Trip Planner

Search our weather history database for the weather conditions in past years. The results will help you decide how hot, cold, wet, or windy it might be!

Date:

Astronomy

Nov. 11, 2013 Rise Set
Actual Time 6:57 AM EST 5:12 PM EST
Civil Twilight 6:30 AM EST 5:40 PM EST
Nautical Twilight 5:58 AM EST 6:12 PM EST
Astronomical Twilight 5:27 AM EST 6:43 PM EST
Moon 1:47 PM EST (11/11) 12:47 AM EST (11/11)
Length of Visible Light 11h 10m
Length of Day
10h 14m
Waxing Gibbous, 66% of the Moon is Illuminated
Nov 11
Waxing Gibbous
Nov 17
Full
Nov 25
Last Quarter
Dec 2
New
Dec 9
First Quarter

Hourly Weather History & Observations

Time (EST) Temp. Windchill Dew Point Humidity Pressure Visibility Wind Dir Wind Speed Gust Speed Precip Events Conditions
3:35 PM 57.0 °F - 11.7 °F 17% 30.15 in 10.0 mi SSW 6.9 mph - N/A   Clear
3:55 PM 56.7 °F - 12.9 °F 18% 30.15 in 10.0 mi SW 5.8 mph - N/A   Clear
4:15 PM 55.4 °F - 17.1 °F 22% 30.14 in 10.0 mi SSW 4.6 mph - N/A   Clear
4:35 PM 54.5 °F - 19.0 °F 25% 30.14 in 10.0 mi SW 5.8 mph - N/A   Clear
4:55 PM 52.3 °F - 17.8 °F 26% 30.14 in 10.0 mi SW 4.6 mph - N/A   Clear
5:15 PM 50.9 °F - 16.9 °F 26% 30.14 in 10.0 mi SW 4.6 mph - N/A   Clear
5:35 PM 49.8 °F - 17.2 °F 27% 30.13 in 10.0 mi SSW 3.5 mph - N/A   Scattered Clouds
5:55 PM 49.6 °F - 17.1 °F 27% 30.12 in 10.0 mi Calm Calm - N/A   Scattered Clouds
6:15 PM 50.0 °F - 16.3 °F 26% 30.12 in 10.0 mi Calm Calm - N/A   Clear
6:35 PM 47.1 °F - 18.0 °F 31% 30.12 in 10.0 mi Calm Calm - N/A   Clear
6:55 PM 43.0 °F - 18.7 °F 38% 30.12 in 10.0 mi Calm Calm - N/A   Clear
7:15 PM 43.3 °F - 20.5 °F 40% 30.12 in 10.0 mi Calm Calm - N/A   Clear
7:35 PM 41.2 °F - 21.9 °F 46% 30.12 in 10.0 mi Calm Calm - N/A   Clear
7:55 PM 42.8 °F - 19.4 °F 39% 30.12 in 10.0 mi Calm Calm - N/A   Clear
8:15 PM 41.5 °F - 20.3 °F 43% 30.12 in 10.0 mi Calm Calm - N/A   Scattered Clouds
8:35 PM 40.8 °F - 18.9 °F 41% 30.12 in 10.0 mi Calm Calm - N/A   Scattered Clouds
8:55 PM 41.0 °F - 20.3 °F 44% 30.12 in 10.0 mi Calm Calm - N/A   Clear
9:15 PM 39.2 °F - 20.5 °F 47% 30.11 in 10.0 mi Calm Calm - N/A   Mostly Cloudy
9:35 PM 38.7 °F - 25.0 °F 58% 30.11 in 10.0 mi Calm Calm - N/A   Mostly Cloudy
9:55 PM 39.9 °F - 23.9 °F 53% 30.11 in 10.0 mi Calm Calm - N/A   Mostly Cloudy
10:15 PM 40.6 °F - 23.2 °F 50% 30.11 in 10.0 mi Calm Calm - N/A   Mostly Cloudy
10:35 PM 41.2 °F - 23.2 °F 49% 30.11 in 10.0 mi Calm Calm - N/A   Overcast
10:55 PM 42.3 °F 40.5 °F 21.7 °F 44% 30.10 in 10.0 mi SSW 3.5 mph - N/A   Overcast
11:15 PM 45.5 °F - 18.1 °F 34% 30.10 in 10.0 mi Calm Calm - N/A   Overcast
11:35 PM 46.2 °F - 17.2 °F 31% 30.09 in 10.0 mi Calm Calm - N/A   Overcast
11:55 PM 43.5 °F - 20.7 °F 40% 30.09 in 10.0 mi Calm Calm - N/A   Overcast